Location: Alpha Ridge Park
(39.3209°N, 76.9128°W)
Time: 09:23:53
(UTC-04:00)

Transit 2A - Pass Details

Date: 28 May 2019
Orbit: 593 x 966 km, 66.7° (Epoch: 20 June)

Event Time Altitude Azimuth Distance (km) Brightness Sun altitude
Rises 15:48:19 0° 335° (NNW) 3,539 9.5 51.0°
Reaches altitude 10° 15:51:01 10° 340° (NNW) 2,546 8.9 50.5°
Maximum altitude 15:56:44 50° 56° (NE) 1,036 6.9 49.4°
Drops below altitude 10° 16:01:52 10° 131° (SE) 2,288 8.3 48.4°
Sets 16:04:11 0° 137° (SE) 3,150 9.0 48.0°
